Weather in Barsovo

Russia / Khanty-Mansi Autonomous Okrug — Yugra     61°15′11″N   73°11′19″E
temp.,
°C
wind,
m/s
gust,
m/s
humid.,
%
clouds,
%
prec.,
mm/h
press.,
hPa
HPBL,
m
28 june, tue
tue2823:00+10nw3983100 1.2 995290
02:00+9nnw51376100 0.0 995434
05:00+8nw61177100 0.0 996502
08:00+11wnw6966100 0.0 9961165
11:00+11wnw61062100 0.1 9961546
14:00+10w61074100 0.1 9971184
17:00+8w61088100 0.3 9971112
20:00+7wsw51095100 1.3 997666
29 june, wed
wed2923:00+7sw4894100 1.4 997450
02:00+7ssw3795100 0.0 996332
05:00+7sw2593100 0.0 997261
08:00+10sw2382100 0.0 997596
11:00+12nw216685 0.1 9971064
14:00+12n437087 0.0 997862
17:00+12n5676100 0.1 996814
20:00+10nne61188100 0.1 995463
30 june, thu
thu3023:00+9n61395100 1.9 994526
02:00+9n81695100 1.5 991622
05:00+10n91896100 8.9 988828
08:00+11ne91694100 10.1 988928
11:00+12nne61296100 12.1 990691
14:00+13nne61296100 2.4 992843
17:00+13n61197100 5.1 992672
20:00+13nne3598100 0.6 994315
1 july, fri
fri123:00+12nne3699100 1.1 994266
02:00+12nnw51098100 4.3 993547
05:00+13nne4797100 4.6 995503
08:00+11n6995100 1.0 997600
11:00+10n71392100 1.4 999803
14:00+11n61489100 0.7 1000896
17:00+12n61386100 0.8 1002741
20:00+11nnw3988100 0.0 1002415
2 july, sat
sat223:00+11nw41182100 0.0 1002403
02:00+10nw4118090 0.0 1001334
05:00+9nw5107853 0.0 1001440
08:00+12nnw5866100 0.0 1001688
11:00+13nnw576193 0.0 1002897
14:00+15n5757100 0.0 10011181
17:00+14nnw576679 0.0 1001823
20:00+12nw4974100 0.1 1001375